This is the latest recevied weather packets stored in our database for station/object K3JSE-4. If no packets are shown the sender has not sent any weather packets the latest 10 day(s).
| Time | Temp. | Humidity | Pressure | Rain* | Wind** | Luminosity | Snow |
|---|---|---|---|---|---|---|---|
| 1777386643 | 11.67° C | 68% | 1022.5 hPa | 0 mm | - | - | - |
| 1777386343 | 11.67° C | 68% | 1022.3 hPa | 0 mm | - | - | - |
| 1777386043 | 11.67° C | 67% | 1022.3 hPa | 0 mm | - | - | - |
| 1777385743 | 11.67° C | 69% | 1022.1 hPa | 0 mm | - | - | - |
| 1777385443 | 11.67° C | 69% | 1022.1 hPa | 0 mm | - | - | - |
| 1777385143 | 11.67° C | 67% | 1022 hPa | 0 mm | - | - | - |
| 1777384843 | 11.67° C | 67% | 1022.1 hPa | 0 mm | - | - | - |
| 1777384543 | 11.67° C | 68% | 1022.1 hPa | 0 mm | - | - | - |
| 1777384243 | 11.67° C | 67% | 1022.1 hPa | 0 mm | - | - | - |
| 1777383943 | 11.67° C | 67% | 1022.2 hPa | 0 mm | - | - | - |
| 1777383643 | 11.67° C | 66% | 1022.2 hPa | 0 mm | - | - | - |
| 1777383343 | 11.67° C | 66% | 1022.4 hPa | 0 mm | - | - | - |
| 1777383043 | 11.67° C | 65% | 1022.3 hPa | 0 mm | - | - | - |
| 1777382743 | 11.67° C | 67% | 1022.4 hPa | 0 mm | - | - | - |
| 1777382443 | 11.67° C | 64% | 1022.4 hPa | 0 mm | - | - | - |
| 1777382143 | 11.67° C | 64% | 1022.4 hPa | 0 mm | - | - | - |
| 1777381843 | 11.11° C | 64% | 1022.5 hPa | 0 mm | - | - | - |
| 1777381543 | 11.11° C | 65% | 1022.4 hPa | 0 mm | - | - | - |
| 1777381243 | 11.11° C | 64% | 1022.4 hPa | 0 mm | - | - | - |
| 1777380943 | 11.11° C | 65% | 1022.5 hPa | 0 mm | - | - | - |
| 1777380643 | 11.11° C | 65% | 1022.5 hPa | 0 mm | - | - | - |
| 1777380343 | 10.56° C | 63% | 1022.5 hPa | 0 mm | - | - | - |
| 1777380043 | 10.56° C | 64% | 1022.4 hPa | 0 mm | - | - | - |
| 1777379743 | 10.56° C | 64% | 1022.2 hPa | 0 mm | - | - | - |
| 1777379443 | 10.56° C | 65% | 1022.3 hPa | 0 mm | - | - | - |
* Rain latest hour (hover to see other rain measurements)
** Current wind speed in m/s (hover to see current wind gust speed)